STARLINK-1585, 46117

Orbit data source: Space-Track

STARLINK-1585, 46117 is a payload satellite owned by SpaceX/Seattle (US) in LEO that was launched on Tue, 18 Aug 2020 UTC via an FALCON 9 launch vehicle from the Air Force Eastern Test Range (AFETR). Payload-class satellites include a variety of spacecraft equipped with specific instruments for various scientific and technological missions. These include communications satellites like Starlink; space stations such as the ISS; scientific satellites like the Hubble; Earth observation satellites from companies like Planet Labs, Umbra, and HawkEye 360; GPS; miniature CubeSats for education and research; and military/defense satellites.

Loading next visibility...
Identifier
46117, 2020-057A
Orbit
LEO
Country
Flag of USUS
Related business
Manufacturer
SpaceX/Seattle
Mission
Operational Commercial Communications
Bus & Motor
STARLINK, Unknown motor
Mass
260 kg wet, ~248 kg dry
Launch date (UTC)
2020-08-18 (5 years ago)
Launch vehicle
FALCON 9
Launch site
Air Force Eastern Test Range (AFETR)
Object type
Payload
Rocket body
Debris
Shape & HBR
Box + 1 Pan, 10.1 m
Radar Cross Section
13.562 m², Large (>1 m²)

Expand to show TLE details & history
Last TLE update: 6 hours ago

TLE from 6 hours ago
0 STARLINK-1585
1 46117U 20057A   25289.00002315  .01988172  00000-0  98516-1 0  9996
2 46117  53.0546 226.0022 0001619  88.4010  93.7421 15.14177603  5653
Epoch: 2025-10-16T00:00Z
TLE epoch observation values (Epoch: 2025-10-16T00:00:02.000Z)
Latitude
-1.8177°
Longitude
22.58793°
Altitude
524.686 km
Speed
7.602 km/s
True Right ascension
03h 09m 26s
True Declination
-1° 48' 23"
Sunlit
Object was in full shadow at epoch
Visualization orbit readout
Latitude
Unknown
Longitude
Unknown
Altitude
Unknown
Speed
Unknown
Apparent Right ascension
Unknown
Apparent Declination
Unknown
Sunlit
N/A
Visualization observer readout
Local Sidereal Time
00:28:07
Azimuth
Unknown
Elevation
Unknown
Doppler factor
Unknown
Orbital elements
Apogee altitude
524.865 km
Perigee altitude
522.631 km
Semi-major axis
6,901.885 km
Eccentricity
0.00016
Inclination
53.0546°
RAAN
226.0022°
Arg. of periapsis
88.401°
True anomaly
93.76061°
Mean anomaly
93.7421°
Eccentric anomaly
93.75136°
Mean motion
3.78522 °/min
Orbital period
95.11 mins
BSTAR
0.098516
Loading maneuver chart data...
Computing Atmospheric mass density...

Documentation

Showing up to 5 results
|